This is the latest recevied weather packets stored in our database for station/object KB4RFE. If no packets are shown the sender has not sent any weather packets the latest 1 day(s).
| Time | Temp. | Humidity | Pressure | Rain* | Wind** | Luminosity | Snow |
|---|---|---|---|---|---|---|---|
| 1777981787 | 15.56° C | 92% | 1020.2 hPa | 0.51 mm | 0.89 m/s, 349° | 38 W/m² | - |
| 1777981483 | 15.56° C | 93% | 1020.4 hPa | 0.51 mm | 0.89 m/s, 7° | 35 W/m² | - |
| 1777981180 | 15.56° C | 93% | 1020.3 hPa | 0 mm | 0.89 m/s, 349° | 34 W/m² | - |
| 1777980876 | 15° C | 93% | 1020.3 hPa | 0 mm | 0.89 m/s, 344° | 40 W/m² | - |
| 1777980572 | 15° C | 94% | 1020.4 hPa | 0 mm | 0.89 m/s, 349° | 31 W/m² | - |
| 1777980270 | 14.44° C | 94% | 1020.1 hPa | 0 mm | 0.89 m/s, 2° | 29 W/m² | - |
| 1777979965 | 14.44° C | 94% | 1020.1 hPa | 0 mm | 0.89 m/s, 4° | 27 W/m² | - |
| 1777979660 | 14.44° C | 94% | 1020 hPa | 0 mm | 0.89 m/s, 2° | 25 W/m² | - |
| 1777979357 | 13.89° C | 94% | 1020 hPa | 0 mm | 1.34 m/s, 356° | 23 W/m² | - |
| 1777979054 | 13.89° C | 94% | 1020 hPa | 0 mm | 1.34 m/s, 351° | 20 W/m² | - |
| 1777978750 | 13.89° C | 94% | 1019.9 hPa | 0 mm | 1.34 m/s, 346° | 18 W/m² | - |
| 1777978447 | 13.89° C | 93% | 1019.8 hPa | 0 mm | 1.34 m/s, 350° | 15 W/m² | - |
| 1777978143 | 13.89° C | 93% | 1019.9 hPa | 0 mm | 1.34 m/s, 352° | 11 W/m² | - |
| 1777977841 | 14.44° C | 93% | 1019.9 hPa | 0 mm | 1.34 m/s, 348° | 8 W/m² | - |
| 1777977536 | 14.44° C | 93% | 1019.7 hPa | 0 mm | 1.34 m/s, 346° | 6 W/m² | - |
| 1777977235 | 14.44° C | 93% | 1019.7 hPa | 0 mm | 1.34 m/s, 349° | 4 W/m² | - |
| 1777976932 | 14.44° C | 92% | 1019.6 hPa | 0 mm | 0.89 m/s, 337° | 2 W/m² | - |
| 1777976629 | 14.44° C | 92% | 1019.5 hPa | 0 mm | 0.89 m/s, 350° | 1 W/m² | - |
| 1777976324 | 14.44° C | 92% | 1019.5 hPa | 0 mm | 0.89 m/s, 4° | 0 W/m² | - |
| 1777976019 | 14.44° C | 92% | 1019.6 hPa | 0 mm | 0.89 m/s, 3° | 0 W/m² | - |
| 1777975715 | 15° C | 91% | 1019.5 hPa | 0 mm | 0.89 m/s, 2° | 0 W/m² | - |
| 1777975412 | 15° C | 91% | 1019.4 hPa | 0 mm | 0.89 m/s, 7° | 0 W/m² | - |
| 1777975108 | 15° C | 90% | 1019.6 hPa | 0 mm | 0.89 m/s, 355° | 0 W/m² | - |
| 1777974806 | 15° C | 90% | 1019.5 hPa | 0 mm | 0.89 m/s, 351° | 0 W/m² | - |
| 1777974501 | 15° C | 89% | 1019.5 hPa | 0 mm | 0.89 m/s, 9° | 0 W/m² | - |
* Rain latest hour (hover to see other rain measurements)
** Current wind speed in m/s (hover to see current wind gust speed)